GLOBALSTAR M088

Last updated on Mon Sep 21 2026 00:03:12 GMT+0000 (Coordinated Universal Time)

1 37740U 11033B 26263.51624572 -.00000094 00000+0 53133-4 0 9992 2 37740 52.0244 348.8670 0000541 102.6591 270.3258 12.62270298700531
UTC large
Height (km)
Speed (km/s)
/
Latitude / Longitude
Inclination (degrees)
Orbital Period (minutes)
Azimuth
Elevation
Range (km)
Doppler Factor

Next 0 passes for location: London (51.5072 / 0.1276)

No passes found over London.